| time (UTC) | temp F | wind direction | speed knots | gust knots | rain 1hr in | rain 24hr in | rain mn in | humidity % | barometer mb |
| 20260505171019 | 47 | 333 | 6.1 | 7.0 | 0.00 | 0.00 | 0.00 | 40 | 1021.1 |
| 20260505170516 | 44 | 321 | 7.0 | 7.8 | 0.00 | 0.00 | 0.00 | 44 | 1021.2 |
| 20260505170013 | 46 | 351 | 8.7 | 11.3 | 0.00 | 0.00 | 0.00 | 45 | 1021.1 |
| 20260505165508 | 46 | 325 | 8.7 | 13.0 | 0.00 | 0.00 | 0.00 | 45 | 1021.1 |
| 20260505165004 | 49 | 318 | 7.0 | 8.7 | 0.00 | 0.00 | 0.00 | 43 | 1021.1 |
| 20260505164500 | 48 | 21 | 7.8 | 9.6 | 0.00 | 0.00 | 0.00 | 38 | 1021.1 |
| 20260505163958 | 48 | 343 | 7.8 | 9.6 | 0.00 | 0.00 | 0.00 | 39 | 1021.2 |
| 20260505163456 | 46 | 5 | 5.2 | 7.0 | 0.00 | 0.00 | 0.00 | 42 | 1021.2 |
| 20260505162955 | 44 | 355 | 7.8 | 8.7 | 0.00 | 0.00 | 0.00 | 44 | 1021.1 |
| 20260505162451 | 45 | 335 | 9.6 | 12.2 | 0.00 | 0.00 | 0.00 | 44 | 1021.2 |
| 20260505161947 | 43 | 261 | 12.2 | 18.2 | 0.00 | 0.00 | 0.00 | 48 | 1020.9 |
| 20260505161444 | 43 | 351 | 6.1 | 7.0 | 0.00 | 0.00 | 0.00 | 47 | 1021.2 |
| 20260505160942 | 45 | 324 | 8.7 | 11.3 | 0.00 | 0.00 | 0.00 | 48 | 1021.2 |
| 20260505160440 | 46 | 7 | 6.1 | 7.0 | 0.00 | 0.00 | 0.00 | 48 | 1021.2 |
| 20260505152916 | 42 | 354 | 6.1 | 7.0 | 0.00 | 0.00 | 0.00 | 55 | 1021.3 |
| 20260505152414 | 42 | 335 | 7.0 | 7.8 | 0.00 | 0.00 | 0.00 | 55 | 1021.4 |
| 20260505151913 | 43 | 331 | 7.8 | 8.7 | 0.00 | 0.00 | 0.00 | 53 | 1021.4 |
| 20260505151410 | 44 | 349 | 5.2 | 7.0 | 0.00 | 0.00 | 0.00 | 55 | 1021.3 |
| 20260505150908 | 44 | 352 | 4.3 | 7.0 | 0.00 | 0.00 | 0.00 | 55 | 1021.4 |
| 20260505150405 | 45 | 359 | 5.2 | 6.1 | 0.00 | 0.00 | 0.00 | 54 | 1021.3 |
| 20260505140334 | 40 | 34 | 2.6 | 3.5 | 0.00 | 0.00 | 0.00 | 61 | 1021.3 |
| 20260505130257 | 39 | 333 | 3.5 | 3.5 | 0.00 | 0.00 | 0.00 | 62 | 1020.5 |
| 20260505124748 | 38 | 345 | 2.6 | 2.6 | 0.00 | 0.00 | 0.00 | 61 | 1020.5 |
| 20260505124245 | 38 | 347 | 3.5 | 3.5 | 0.00 | 0.00 | 0.00 | 61 | 1020.6 |
| 20260505123740 | 38 | 338 | 2.6 | 3.5 | 0.00 | 0.00 | 0.00 | 60 | 1020.6 |
| 20260505123237 | 38 | 347 | 3.5 | 3.5 | 0.00 | 0.00 | 0.00 | 60 | 1020.5 |
| 20260505122734 | 38 | 333 | 4.3 | 6.1 | 0.00 | 0.00 | 0.00 | 60 | 1020.4 |
| 20260505122231 | 38 | 324 | 2.6 | 2.6 | 0.00 | 0.00 | 0.00 | 60 | 1020.4 |
| 20260505121727 | 37 | 302 | 3.5 | 3.5 | 0.00 | 0.00 | 0.00 | 59 | 1020.6 |
| 20260505121224 | 37 | 323 | 0.9 | 1.7 | 0.00 | 0.00 | 0.00 | 59 | 1020.6 |
| 20260505120721 | 37 | 319 | 0.9 | 1.7 | 0.00 | 0.00 | 0.00 | 58 | 1020.5 |
| 20260505120217 | 37 | 303 | 1.7 | 1.7 | 0.00 | 0.00 | 0.00 | 58 | 1020.5 |
| 20260505115715 | 37 | 306 | 1.7 | 1.7 | 0.00 | 0.00 | 0.00 | 57 | 1020.4 |
| 20260505115213 | 37 | 311 | 1.7 | 1.7 | 0.00 | 0.00 | 0.00 | 56 | 1020.4 |
| 20260505114710 | 37 | 334 | 2.6 | 2.6 | 0.00 | 0.00 | 0.00 | 56 | 1020.4 |
| 20260505114206 | 37 | 327 | 1.7 | 1.7 | 0.00 | 0.00 | 0.00 | 56 | 1020.4 |
| 20260505113703 | 38 | 324 | 0.9 | 1.7 | 0.00 | 0.00 | 0.00 | 55 | 1020.2 |
| 20260505113200 | 38 | 329 | 1.7 | 1.7 | 0.00 | 0.00 | 0.00 | 55 | 1020.2 |
| 20260505112656 | 38 | 3 | 0.9 | 0.9 | 0.00 | 0.00 | 0.00 | 55 | 1020.4 |
| 20260505112154 | 38 | 338 | 0.9 | 0.9 | 0.00 | 0.00 | 0.00 | 56 | 1020.4 |
| 20260505111653 | 38 | 327 | 0.9 | 0.9 | 0.00 | 0.00 | 0.00 | 56 | 1020.4 |
| 20260505111149 | 38 | 326 | 0.0 | 0.9 | 0.00 | 0.00 | 0.00 | 56 | 1020.2 |
| 20260505110646 | 38 | 300 | 0.0 | 0.0 | 0.00 | 0.00 | 0.00 | 56 | 1020.2 |
| 20260505110143 | 38 | 301 | 0.9 | 0.9 | 0.00 | 0.00 | 0.00 | 57 | 1020.3 |
| 20260505102119 | 37 | 227 | 0.0 | 0.0 | 0.00 | 0.00 | 0.00 | 57 | 1020.1 |
| 20260505101617 | 37 | 221 | 0.0 | 0.0 | 0.00 | 0.00 | 0.00 | 58 | 1020.0 |
| 20260505101113 | 37 | 221 | 0.0 | 0.0 | 0.00 | 0.00 | 0.00 | 57 | 1020.2 |
| 20260505100610 | 38 | 221 | 0.0 | 0.0 | 0.00 | 0.00 | 0.00 | 57 | 1020.0 |
| 20260505100107 | 38 | 221 | 0.0 | 0.0 | 0.00 | 0.00 | 0.00 | 57 | 1019.9 |
| 20260505095603 | 38 | 221 | 0.0 | 0.0 | 0.00 | 0.00 | 0.00 | 56 | 1019.9 |
| 20260505095059 | 38 | 221 | 0.0 | 0.0 | 0.00 | 0.00 | 0.00 | 55 | 1020.0 |
| 20260505094556 | 38 | 221 | 0.0 | 0.0 | 0.00 | 0.00 | 0.00 | 55 | 1019.7 |
| 20260505094052 | 38 | 221 | 0.0 | 0.0 | 0.00 | 0.00 | 0.00 | 55 | 1019.9 |
| 20260505093549 | 38 | 222 | 0.0 | 0.0 | 0.00 | 0.00 | 0.00 | 56 | 1020.0 |
| 20260505093046 | 39 | 223 | 0.0 | 0.0 | 0.00 | 0.00 | 0.00 | 55 | 1019.9 |
| 20260505092543 | 39 | 220 | 0.0 | 0.0 | 0.00 | 0.00 | 0.00 | 53 | 1019.6 |
| 20260505092042 | 39 | 220 | 0.0 | 0.0 | 0.00 | 0.00 | 0.00 | 53 | 1019.6 |
| 20260505091538 | 38 | 229 | 0.0 | 0.9 | 0.00 | 0.00 | 0.00 | 54 | 1019.7 |
| 20260505091037 | 38 | 229 | 0.0 | 0.0 | 0.00 | 0.00 | 0.00 | 55 | 1019.7 |
| 20260505090534 | 38 | 234 | 0.0 | 0.0 | 0.00 | 0.00 | 0.00 | 55 | 1019.9 |
| 20260505090032 | 38 | 240 | 0.9 | 0.9 | 0.00 | 0.00 | 0.00 | 55 | 1019.7 |
| 20260505085530 | 38 | 254 | 1.7 | 1.7 | 0.00 | 0.00 | 0.00 | 55 | 1019.6 |
| 20260505085027 | 38 | 233 | 0.0 | 0.9 | 0.00 | 0.00 | 0.00 | 55 | 1019.6 |
| 20260505084525 | 38 | 247 | 0.9 | 0.9 | 0.00 | 0.00 | 0.00 | 55 | 1019.5 |
| 20260505084023 | 38 | 255 | 0.9 | 1.7 | 0.00 | 0.00 | 0.00 | 55 | 1019.9 |
| 20260505083520 | 38 | 258 | 1.7 | 1.7 | 0.00 | 0.00 | 0.00 | 55 | 1019.7 |
| 20260505083017 | 38 | 249 | 0.9 | 0.9 | 0.00 | 0.00 | 0.00 | 54 | 1019.6 |
| 20260505082512 | 39 | 272 | 1.7 | 1.7 | 0.00 | 0.00 | 0.00 | 52 | 1019.9 |
| 20260505082009 | 39 | 354 | 0.0 | 0.9 | 0.00 | 0.00 | 0.00 | 52 | 1019.7 |
| 20260505081506 | 39 | 354 | 0.0 | 0.0 | 0.00 | 0.00 | 0.00 | 52 | 1019.7 |
| 20260505081003 | 39 | 354 | 0.0 | 0.0 | 0.00 | 0.00 | 0.00 | 52 | 1019.6 |
| 20260505080459 | 39 | 355 | 0.0 | 0.0 | 0.00 | 0.00 | 0.00 | 52 | 1019.7 |
| 20260505075955 | 39 | 354 | 0.0 | 0.0 | 0.00 | 0.00 | 0.00 | 51 | 1019.5 |
| 20260505075452 | 39 | 354 | 0.0 | 0.9 | 0.00 | 0.00 | 0.00 | 52 | 1019.6 |
| 20260505074949 | 39 | 342 | 1.7 | 1.7 | 0.00 | 0.00 | 0.00 | 52 | 1019.6 |
| 20260505074446 | 39 | 309 | 1.7 | 1.7 | 0.00 | 0.00 | 0.00 | 52 | 1019.7 |
| 20260505073943 | 39 | 325 | 0.9 | 1.7 | 0.00 | 0.00 | 0.00 | 53 | 1019.6 |
| 20260505073441 | 39 | 283 | 1.7 | 1.7 | 0.00 | 0.00 | 0.00 | 52 | 1019.5 |
| 20260505072938 | 38 | 269 | 1.7 | 1.7 | 0.00 | 0.00 | 0.00 | 53 | 1019.5 |
| 20260505072434 | 39 | 262 | 1.7 | 1.7 | 0.00 | 0.00 | 0.00 | 53 | 1019.5 |
| 20260505071930 | 39 | 228 | 0.0 | 0.9 | 0.00 | 0.00 | 0.00 | 52 | 1019.6 |
| 20260505071426 | 39 | 229 | 0.0 | 0.0 | 0.00 | 0.00 | 0.00 | 52 | 1019.5 |
| 20260505070925 | 39 | 274 | 1.7 | 2.6 | 0.00 | 0.00 | 0.00 | 52 | 1019.5 |
| 20260505070420 | 40 | 300 | 0.9 | 0.9 | 0.00 | 0.00 | 0.00 | 51 | 1019.6 |
| 20260505065916 | 40 | 349 | 0.9 | 0.9 | 0.00 | 0.00 | 0.00 | 50 | 1019.5 |
| 20260505065413 | 40 | 65 | 0.9 | 0.9 | 0.00 | 0.00 | 0.00 | 49 | 1019.5 |
| 20260505064910 | 40 | 34 | 0.9 | 0.9 | 0.00 | 0.00 | 0.00 | 49 | 1019.4 |
| 20260505064407 | 39 | 28 | 1.7 | 1.7 | 0.00 | 0.00 | 0.00 | 50 | 1019.3 |
| 20260505063906 | 39 | 264 | 1.7 | 1.7 | 0.00 | 0.00 | 0.00 | 51 | 1019.3 |
| 20260505063401 | 39 | 29 | 0.0 | 0.0 | 0.00 | 0.00 | 0.00 | 50 | 1019.4 |
| 20260505062858 | 40 | 32 | 0.0 | 0.0 | 0.00 | 0.00 | 0.00 | 49 | 1019.4 |
| 20260505062355 | 41 | 32 | 0.0 | 0.9 | 0.00 | 0.00 | 0.00 | 48 | 1019.4 |
| 20260505061852 | 41 | 34 | 0.9 | 0.9 | 0.00 | 0.00 | 0.00 | 48 | 1019.2 |
| 20260505061351 | 41 | 45 | 1.7 | 1.7 | 0.00 | 0.00 | 0.00 | 48 | 1019.2 |
| 20260505060848 | 41 | 63 | 0.9 | 0.9 | 0.00 | 0.00 | 0.00 | 48 | 1019.4 |
| 20260505060344 | 41 | 25 | 2.6 | 2.6 | 0.00 | 0.00 | 0.00 | 48 | 1019.2 |
| 20260505055840 | 41 | 22 | 2.6 | 2.6 | 0.00 | 0.00 | 0.00 | 48 | 1019.2 |
| 20260505055336 | 41 | 25 | 3.5 | 3.5 | 0.00 | 0.00 | 0.00 | 47 | 1019.1 |
| 20260505054834 | 41 | 45 | 1.7 | 1.7 | 0.00 | 0.00 | 0.00 | 47 | 1019.2 |
| 20260505054331 | 41 | 36 | 2.6 | 3.5 | 0.00 | 0.00 | 0.00 | 47 | 1019.2 |
| 20260505053829 | 41 | 51 | 3.5 | 3.5 | 0.00 | 0.00 | 0.00 | 47 | 1019.0 |
| 20260505053325 | 41 | 49 | 1.7 | 1.7 | 0.00 | 0.00 | 0.00 | 48 | 1019.0 |
| 20260505052822 | 40 | 54 | 0.9 | 1.7 | 0.00 | 0.00 | 0.00 | 48 | 1018.8 |
| 20260505052319 | 40 | 61 | 1.7 | 1.7 | 0.00 | 0.00 | 0.00 | 48 | 1018.9 |
| 20260505051816 | 40 | 74 | 0.9 | 0.9 | 0.00 | 0.00 | 0.00 | 48 | 1019.0 |
| 20260505051314 | 40 | 57 | 1.7 | 1.7 | 0.00 | 0.00 | 0.00 | 48 | 1019.0 |
| 20260505050812 | 40 | 42 | 0.9 | 0.9 | 0.00 | 0.00 | 0.00 | 48 | 1019.0 |
| 20260505050310 | 41 | 43 | 0.9 | 0.9 | 0.00 | 0.00 | 0.00 | 47 | 1019.0 |
| 20260505041740 | 42 | 29 | 1.7 | 2.6 | 0.00 | 0.00 | 0.00 | 46 | 1019.0 |
| 20260505041237 | 42 | 76 | 1.7 | 1.7 | 0.00 | 0.00 | 0.00 | 45 | 1018.8 |
| 20260505040734 | 42 | 27 | 3.5 | 5.2 | 0.00 | 0.00 | 0.00 | 45 | 1018.8 |
| 20260505040232 | 42 | 44 | 1.7 | 2.6 | 0.00 | 0.00 | 0.00 | 45 | 1018.7 |
| 20260505035729 | 42 | 69 | 1.7 | 1.7 | 0.00 | 0.00 | 0.00 | 44 | 1018.7 |
| 20260505035224 | 43 | 89 | 0.9 | 0.9 | 0.00 | 0.00 | 0.00 | 43 | 1018.4 |
| 20260505034721 | 44 | 31 | 3.5 | 3.5 | 0.00 | 0.00 | 0.00 | 43 | 1018.4 |
| 20260505034218 | 44 | 16 | 3.5 | 5.2 | 0.00 | 0.00 | 0.00 | 42 | 1018.5 |
| 20260505033714 | 44 | 44 | 6.1 | 7.0 | 0.00 | 0.00 | 0.00 | 42 | 1018.3 |
| 20260505033213 | 45 | 34 | 5.2 | 6.1 | 0.00 | 0.00 | 0.00 | 41 | 1018.3 |
| 20260505032710 | 45 | 27 | 3.5 | 5.2 | 0.00 | 0.00 | 0.00 | 41 | 1018.2 |
| 20260505032206 | 45 | 20 | 4.3 | 5.2 | 0.00 | 0.00 | 0.00 | 41 | 1018.1 |
| 20260505031704 | 45 | 22 | 4.3 | 6.1 | 0.00 | 0.00 | 0.00 | 40 | 1018.1 |
| 20260505031200 | 46 | 18 | 5.2 | 7.0 | 0.00 | 0.00 | 0.00 | 40 | 1018.0 |
| 20260505030657 | 46 | 14 | 9.6 | 9.6 | 0.00 | 0.00 | 0.00 | 39 | 1018.1 |
| 20260505030153 | 46 | 28 | 7.0 | 8.7 | 0.00 | 0.00 | 0.00 | 39 | 1017.7 |
| 20260505025649 | 46 | 17 | 6.1 | 7.8 | 0.00 | 0.00 | 0.00 | 38 | 1017.4 |
| 20260505025147 | 47 | 23 | 5.2 | 7.8 | 0.00 | 0.00 | 0.00 | 37 | 1017.7 |
| 20260505024644 | 47 | 3 | 7.8 | 8.7 | 0.00 | 0.00 | 0.00 | 37 | 1017.3 |
| 20260505024142 | 48 | 16 | 7.0 | 7.8 | 0.00 | 0.00 | 0.00 | 35 | 1017.3 |
| 20260505023639 | 48 | 14 | 7.8 | 9.6 | 0.00 | 0.00 | 0.00 | 35 | 1017.4 |
| 20260505023136 | 48 | 18 | 8.7 | 11.3 | 0.00 | 0.00 | 0.00 | 34 | 1017.3 |
| 20260505022634 | 49 | 15 | 8.7 | 9.6 | 0.00 | 0.00 | 0.00 | 33 | 1017.1 |
| 20260505022131 | 50 | 12 | 6.1 | 7.0 | 0.00 | 0.00 | 0.00 | 32 | 1017.0 |
| 20260505021627 | 50 | 43 | 5.2 | 6.1 | 0.00 | 0.00 | 0.00 | 29 | 1016.9 |
| 20260505021124 | 51 | 13 | 6.1 | 7.0 | 0.00 | 0.00 | 0.00 | 28 | 1016.9 |
| 20260505020620 | 51 | 11 | 6.1 | 7.8 | 0.00 | 0.00 | 0.00 | 28 | 1016.8 |
| 20260505020116 | 52 | 5 | 5.2 | 7.0 | 0.00 | 0.00 | 0.00 | 27 | 1016.8 |
| 20260505015613 | 52 | 18 | 5.2 | 7.8 | 0.00 | 0.00 | 0.00 | 26 | 1016.6 |
| 20260505015110 | 53 | 16 | 8.7 | 13.0 | 0.00 | 0.00 | 0.00 | 25 | 1016.7 |
| 20260505014607 | 53 | 23 | 6.1 | 7.0 | 0.00 | 0.00 | 0.00 | 24 | 1016.7 |
| 20260505014104 | 53 | 12 | 7.0 | 8.7 | 0.00 | 0.00 | 0.00 | 23 | 1016.6 |
| 20260505013601 | 54 | 10 | 7.8 | 8.7 | 0.00 | 0.00 | 0.00 | 23 | 1016.5 |
| 20260505013058 | 54 | 356 | 7.8 | 8.7 | 0.00 | 0.00 | 0.00 | 23 | 1016.5 |
| 20260505012556 | 54 | 22 | 6.1 | 7.8 | 0.00 | 0.00 | 0.00 | 23 | 1016.5 |
| 20260505012053 | 55 | 9 | 10.4 | 13.0 | 0.00 | 0.00 | 0.00 | 21 | 1016.4 |
| 20260505011548 | 55 | 340 | 8.7 | 11.3 | 0.00 | 0.00 | 0.00 | 21 | 1016.5 |
| 20260505011046 | 55 | 4 | 9.6 | 11.3 | 0.00 | 0.00 | 0.00 | 21 | 1016.5 |
| 20260505010541 | 55 | 336 | 8.7 | 11.3 | 0.00 | 0.00 | 0.00 | 21 | 1016.2 |
| 20260505010038 | 55 | 4 | 8.7 | 9.6 | 0.00 | 0.00 | 0.00 | 20 | 1016.2 |
| 20260505005534 | 55 | 7 | 5.2 | 7.0 | 0.00 | 0.00 | 0.00 | 22 | 1016.4 |
| 20260505005032 | 56 | 344 | 9.6 | 12.2 | 0.00 | 0.00 | 0.00 | 21 | 1016.4 |
| 20260505004529 | 55 | 343 | 7.0 | 8.7 | 0.00 | 0.00 | 0.00 | 22 | 1016.4 |
| 20260505004025 | 55 | 4 | 11.3 | 13.9 | 0.00 | 0.00 | 0.00 | 21 | 1016.4 |
| 20260505003523 | 55 | 348 | 7.8 | 11.3 | 0.00 | 0.00 | 0.00 | 22 | 1016.2 |
| 20260505003020 | 56 | 3 | 7.0 | 7.8 | 0.00 | 0.00 | 0.00 | 21 | 1016.5 |
| 20260505002515 | 56 | 4 | 8.7 | 9.6 | 0.00 | 0.00 | 0.00 | 22 | 1016.2 |
| 20260505002014 | 56 | 350 | 9.6 | 13.0 | 0.00 | 0.00 | 0.00 | 21 | 1016.5 |
| 20260505001511 | 56 | 358 | 12.2 | 15.6 | 0.00 | 0.00 | 0.00 | 22 | 1016.4 |
| 20260505001008 | 56 | 345 | 12.2 | 15.6 | 0.00 | 0.00 | 0.00 | 22 | 1016.4 |
| 20260505000505 | 56 | 341 | 7.8 | 8.7 | 0.00 | 0.00 | 0.00 | 23 | 1016.5 |
| 20260505000003 | 56 | 335 | 10.4 | 12.2 | 0.00 | 0.00 | 0.00 | 23 | 1016.6 |
| 20260504235459 | 57 | 343 | 11.3 | 14.8 | 0.00 | 0.00 | 0.00 | 23 | 1016.6 |
| 20260504234956 | 56 | 325 | 13.9 | 16.5 | 0.00 | 0.00 | 0.00 | 23 | 1016.6 |
| 20260504234453 | 56 | 345 | 10.4 | 12.2 | 0.00 | 0.00 | 0.00 | 23 | 1016.4 |
| 20260504233949 | 56 | 347 | 6.1 | 7.0 | 0.00 | 0.00 | 0.00 | 24 | 1016.6 |
| 20260504233445 | 55 | 348 | 9.6 | 12.2 | 0.00 | 0.00 | 0.00 | 24 | 1016.5 |
| 20260504232942 | 56 | 349 | 6.1 | 7.0 | 0.00 | 0.00 | 0.00 | 23 | 1016.5 |
| 20260504232439 | 57 | 2 | 10.4 | 12.2 | 0.00 | 0.00 | 0.00 | 23 | 1016.6 |
| 20260504231937 | 57 | 328 | 7.0 | 8.7 | 0.00 | 0.00 | 0.00 | 24 | 1016.6 |
| 20260504231432 | 57 | 337 | 7.0 | 8.7 | 0.00 | 0.00 | 0.00 | 25 | 1016.6 |
| 20260504230929 | 56 | 342 | 16.5 | 16.5 | 0.00 | 0.00 | 0.00 | 24 | 1016.7 |
| 20260504230426 | 56 | 345 | 12.2 | 14.8 | 0.00 | 0.00 | 0.00 | 26 | 1016.4 |
| 20260504225925 | 57 | 359 | 9.6 | 11.3 | 0.00 | 0.00 | 0.00 | 24 | 1016.5 |
| 20260504225421 | 57 | 6 | 8.7 | 9.6 | 0.00 | 0.00 | 0.00 | 25 | 1016.4 |
| 20260504224919 | 58 | 353 | 9.6 | 9.6 | 0.00 | 0.00 | 0.00 | 25 | 1016.4 |
| 20260504224415 | 56 | 327 | 11.3 | 13.0 | 0.00 | 0.00 | 0.00 | 27 | 1016.4 |
| 20260504223913 | 56 | 309 | 8.7 | 11.3 | 0.00 | 0.00 | 0.00 | 28 | 1016.5 |
| 20260504223408 | 55 | 0 | 8.7 | 9.6 | 0.00 | 0.00 | 0.00 | 28 | 1016.4 |
| 20260504222904 | 54 | 313 | 15.6 | 16.5 | 0.00 | 0.00 | 0.00 | 29 | 1016.6 |
| 20260504222401 | 54 | 344 | 13.0 | 15.6 | 0.00 | 0.00 | 0.00 | 29 | 1016.6 |
| 20260504221900 | 54 | 313 | 11.3 | 13.0 | 0.00 | 0.00 | 0.00 | 29 | 1016.6 |
| 20260504221356 | 54 | 342 | 13.0 | 15.6 | 0.00 | 0.00 | 0.00 | 30 | 1016.6 |
| 20260504220854 | 54 | 335 | 10.4 | 11.3 | 0.00 | 0.00 | 0.00 | 30 | 1016.6 |
| 20260504220350 | 55 | 332 | 8.7 | 8.7 | 0.00 | 0.00 | 0.00 | 29 | 1016.7 |
| 20260504215847 | 55 | 349 | 9.6 | 13.9 | 0.00 | 0.00 | 0.00 | 28 | 1016.5 |
| 20260504215343 | 54 | 351 | 13.0 | 14.8 | 0.00 | 0.00 | 0.00 | 28 | 1016.8 |
| 20260504214840 | 55 | 343 | 9.6 | 11.3 | 0.00 | 0.00 | 0.00 | 28 | 1016.7 |
| 20260504214337 | 56 | 3 | 11.3 | 13.9 | 0.00 | 0.00 | 0.00 | 27 | 1016.6 |
| 20260504213833 | 56 | 11 | 12.2 | 13.0 | 0.00 | 0.00 | 0.00 | 27 | 1016.7 |
| 20260504213329 | 55 | 1 | 9.6 | 11.3 | 0.00 | 0.00 | 0.00 | 29 | 1016.7 |
| 20260504212827 | 55 | 0 | 13.9 | 16.5 | 0.00 | 0.00 | 0.00 | 28 | 1016.7 |
| 20260504212323 | 56 | 333 | 11.3 | 13.0 | 0.00 | 0.00 | 0.00 | 29 | 1016.9 |
| 20260504211821 | 56 | 8 | 10.4 | 12.2 | 0.00 | 0.00 | 0.00 | 29 | 1017.0 |
| 20260504211316 | 56 | 351 | 10.4 | 13.0 | 0.00 | 0.00 | 0.00 | 29 | 1016.8 |
| 20260504210814 | 56 | 355 | 11.3 | 13.9 | 0.00 | 0.00 | 0.00 | 31 | 1016.8 |
| 20260504210311 | 56 | 8 | 9.6 | 11.3 | 0.00 | 0.00 | 0.00 | 31 | 1016.6 |
| 20260504205808 | 56 | 330 | 10.4 | 14.8 | 0.00 | 0.00 | 0.00 | 31 | 1016.8 |
| 20260504205306 | 57 | 349 | 12.2 | 13.9 | 0.00 | 0.00 | 0.00 | 30 | 1016.7 |
| 20260504204804 | 57 | 346 | 11.3 | 13.9 | 0.00 | 0.00 | 0.00 | 31 | 1016.7 |
| 20260504204302 | 56 | 3 | 8.7 | 11.3 | 0.00 | 0.00 | 0.00 | 32 | 1016.6 |
| 20260504203801 | 57 | 336 | 13.0 | 14.8 | 0.00 | 0.00 | 0.00 | 30 | 1016.6 |
| 20260504203258 | 57 | 359 | 11.3 | 13.0 | 0.00 | 0.00 | 0.00 | 31 | 1016.7 |
| 20260504202758 | 58 | 336 | 10.4 | 12.2 | 0.00 | 0.00 | 0.00 | 31 | 1016.6 |
| 20260504202256 | 56 | 318 | 9.6 | 9.6 | 0.00 | 0.00 | 0.00 | 31 | 1016.5 |
| 20260504201752 | 56 | 355 | 6.1 | 7.8 | 0.00 | 0.00 | 0.00 | 32 | 1016.4 |
| 20260504201249 | 56 | 338 | 9.6 | 9.6 | 0.00 | 0.00 | 0.00 | 32 | 1016.6 |
| 20260504200748 | 56 | 328 | 12.2 | 15.6 | 0.00 | 0.00 | 0.00 | 31 | 1016.5 |
| 20260504200243 | 55 | 332 | 11.3 | 13.0 | 0.00 | 0.00 | 0.00 | 31 | 1016.6 |
| 20260504195740 | 55 | 339 | 13.0 | 16.5 | 0.00 | 0.00 | 0.00 | 32 | 1016.6 |
| 20260504195236 | 55 | 345 | 9.6 | 11.3 | 0.00 | 0.00 | 0.00 | 32 | 1016.6 |
| 20260504194733 | 55 | 346 | 14.8 | 18.2 | 0.00 | 0.00 | 0.00 | 31 | 1016.4 |
| 20260504194229 | 56 | 337 | 7.8 | 8.7 | 0.00 | 0.00 | 0.00 | 32 | 1016.6 |
| 20260504193725 | 55 | 350 | 8.7 | 9.6 | 0.00 | 0.00 | 0.00 | 32 | 1016.6 |
| 20260504193223 | 55 | 359 | 7.8 | 8.7 | 0.00 | 0.00 | 0.00 | 31 | 1016.4 |
| 20260504192721 | 56 | 1 | 9.6 | 13.9 | 0.00 | 0.00 | 0.00 | 32 | 1016.6 |
| 20260504192219 | 56 | 350 | 9.6 | 11.3 | 0.00 | 0.00 | 0.00 | 31 | 1016.6 |
| 20260504191718 | 57 | 342 | 9.6 | 13.0 | 0.00 | 0.00 | 0.00 | 31 | 1016.6 |
| 20260504191214 | 56 | 350 | 8.7 | 12.2 | 0.00 | 0.00 | 0.00 | 32 | 1016.7 |
| 20260504190709 | 56 | 334 | 9.6 | 12.2 | 0.00 | 0.00 | 0.00 | 31 | 1016.8 |
| 20260504190206 | 58 | 339 | 10.4 | 13.0 | 0.00 | 0.00 | 0.00 | 30 | 1016.5 |
| 20260504185702 | 56 | 316 | 7.0 | 7.8 | 0.00 | 0.00 | 0.00 | 32 | 1016.8 |
| 20260504185159 | 58 | 2 | 12.2 | 16.5 | 0.00 | 0.00 | 0.00 | 31 | 1016.8 |
| 20260504184655 | 58 | 340 | 10.4 | 13.9 | 0.00 | 0.00 | 0.00 | 32 | 1016.7 |
| 20260504184150 | 57 | 329 | 9.6 | 12.2 | 0.00 | 0.00 | 0.00 | 31 | 1016.8 |
| 20260504183647 | 59 | 345 | 14.8 | 16.5 | 0.00 | 0.00 | 0.00 | 31 | 1016.5 |
| 20260504183145 | 58 | 344 | 12.2 | 13.9 | 0.00 | 0.00 | 0.00 | 31 | 1016.4 |
| 20260504182642 | 58 | 308 | 11.3 | 13.0 | 0.00 | 0.00 | 0.00 | 31 | 1016.8 |
| 20260504182140 | 58 | 3 | 11.3 | 16.5 | 0.00 | 0.00 | 0.00 | 30 | 1016.8 |
| 20260504181637 | 57 | 350 | 10.4 | 11.3 | 0.00 | 0.00 | 0.00 | 32 | 1016.6 |
| 20260504181135 | 56 | 330 | 14.8 | 21.7 | 0.00 | 0.00 | 0.00 | 31 | 1016.8 |
| 20260504180634 | 57 | 342 | 11.3 | 14.8 | 0.00 | 0.00 | 0.00 | 32 | 1016.7 |
| 20260504180132 | 57 | 343 | 12.2 | 14.8 | 0.00 | 0.00 | 0.00 | 33 | 1016.8 |
| 20260504175629 | 57 | 359 | 8.7 | 11.3 | 0.00 | 0.00 | 0.00 | 33 | 1016.9 |
| 20260504175125 | 57 | 6 | 9.6 | 11.3 | 0.00 | 0.00 | 0.00 | 35 | 1016.8 |
| 20260504174624 | 56 | 359 | 11.3 | 14.8 | 0.00 | 0.00 | 0.00 | 35 | 1016.9 |
| 20260504174119 | 57 | 357 | 13.9 | 18.2 | 0.00 | 0.00 | 0.00 | 34 | 1017.0 |
| 20260504173617 | 57 | 340 | 12.2 | 14.8 | 0.00 | 0.00 | 0.00 | 35 | 1016.8 |
| 20260504173114 | 56 | 350 | 10.4 | 12.2 | 0.00 | 0.00 | 0.00 | 35 | 1016.8 |
| 20260504172611 | 56 | 354 | 12.2 | 15.6 | 0.00 | 0.00 | 0.00 | 35 | 1016.9 |
| 20260504172107 | 56 | 337 | 11.3 | 13.9 | 0.00 | 0.00 | 0.00 | 36 | 1016.7 |
| 20260504171604 | 55 | 340 | 9.6 | 11.3 | 0.00 | 0.00 | 0.00 | 36 | 1016.8 |